This demonstration page uses our WeatherBlox Daily Observations layout. Learn more.

Left ArrowRight Arrow

40.92501, -98.34201

Hourly Observations for February 1, 2022

Temp ( °F °C ) Dew Point ( °F °C ) Humidity (%) Winds ( mph kmh ) Pressure ( in mb ) Visibility ( mi km ) Precip ( " mm )
12:53 am 00:53 Clear 36 2.2 17 -8.3 46 46 NNW 10 17 29.82 1010 10 16 0.00 0.00
1:53 am 01:53 Clear 34 1.1 19 -7.2 54 54 NW 9 15 29.84 1011 10 16 0.00 0.00
2:53 am 02:53 Clear 34 1.1 21 -6.1 59 59 NW 12 19 29.88 1012 10 16 0.00 0.00
3:53 am 03:53 Clear 35 1.7 22 -5.6 59 59 NNW 13 20 29.89 1012 10 16 0.00 0.00
4:53 am 04:53 Clear 34 1.1 20 -6.7 56 56 NNW 15 24 29.91 1013 10 16 0.00 0.00
5:53 am 05:53 Clear 34 1.1 20 -6.7 56 56 NNW 20 31 29.96 1014 10 16 0.00 0.00
6:53 am 06:53 Clear 32 0 19 -7.2 59 59 NNW 10 17 29.99 1016 10 16 0.00 0.00
7:53 am 07:53 Sunny 31 -0.6 19 -7.2 61 61 NNW 14 22 30.03 1017 10 16 0.00 0.00
8:53 am 08:53 Sunny 32 0 18 -7.8 56 56 NNW 21 33 30.06 1018 10 16 0.00 0.00
9:53 am 09:53 Sunny 32 0 14 -10 47 47 N 20 31 30.11 1020 10 16 0.00 0.00
10:53 am 10:53 Sunny 32 0 13 -10.6 45 45 N 21 33 30.15 1021 10 16 0.00 0.00
11:53 am 11:53 Sunny 34 1.1 12 -11.1 40 40 N 22 35 30.16 1022 10 16 0.00 0.00
12:53 pm 12:53 Sunny 32 0 10 -12.2 40 40 N 22 35 30.14 1021 10 16 0.00 0.00
1:53 pm 13:53 Sunny 31 -0.6 9 -12.8 40 40 N 21 33 30.15 1021 10 16 0.00 0.00
2:53 pm 14:53 Sunny 30 -1.1 7 -13.9 38 38 N 20 31 30.15 1021 10 16 0.00 0.00
3:53 pm 15:53 Sunny 30 -1.1 6 -14.4 36 36 N 22 35 30.16 1021 10 16 0.00 0.00
4:53 pm 16:53 Sunny 27 -2.8 5 -15 39 39 N 23 37 30.17 1022 10 16 0.00 0.00
5:53 pm 17:53 Clear 25 -3.9 3 -16.1 39 39 N 14 22 30.21 1023 10 16 0.00 0.00
6:53 pm 18:53 Clear 25 -3.9 3 -16.1 39 39 N 15 24 30.24 1024 10 16 0.00 0.00
7:53 pm 19:53 Cloudy 25 -3.9 2 -16.7 37 37 N 15 24 30.26 1025 10 16 0.00 0.00
8:53 pm 20:53 Cloudy 23 -5 1 -17.2 38 38 NNE 24 39 30.29 1026 10 16 0.00 0.00
9:53 pm 21:53 Cloudy 22 -5.6 -1 -18.3 36 36 NNE 21 33 30.31 1026 10 16 0.00 0.00
10:53 pm 22:53 Cloudy 20 -6.7 -1 -18.3 40 40 N 20 31 30.35 1028 10 16 0.00 0.00
11:53 pm 23:53 Cloudy 19 -7.2 -2 -18.9 39 39 NNE 20 31 30.35 1028 10 16 0.00 0.00

Powered by AerisWeather